TimeMST,TemperatureF,Dew PointF,Humidity,Sea Level PressureIn,VisibilityMPH,Wind Direction,Wind SpeedMPH,Gust SpeedMPH,PrecipitationIn,Events,Conditions,WindDirDegrees,DateUTC
12:52 AM,14.0,3.9,64,30.28,10.0,WSW,5.8,-,N/A,,Clear,240,2013-01-04 07:52:00
1:52 AM,15.1,3.9,61,30.27,10.0,SW,6.9,-,N/A,,Clear,230,2013-01-04 08:52:00
2:52 AM,19.0,5.0,54,30.27,10.0,West,4.6,-,N/A,,Clear,260,2013-01-04 09:52:00
3:52 AM,12.9,3.0,65,30.27,10.0,West,5.8,-,N/A,,Clear,260,2013-01-04 10:52:00
4:52 AM,14.0,1.9,59,30.28,10.0,WSW,4.6,-,N/A,,Clear,240,2013-01-04 11:52:00
5:52 AM,12.9,3.0,65,30.30,10.0,WSW,3.5,-,N/A,,Clear,250,2013-01-04 12:52:00
6:52 AM,16.0,3.0,57,30.29,10.0,West,3.5,-,N/A,,Clear,270,2013-01-04 13:52:00
7:52 AM,14.0,1.9,59,30.31,10.0,Calm,Calm,-,N/A,,Clear,0,2013-01-04 14:52:00
8:52 AM,24.1,5.0,44,30.29,10.0,WSW,5.8,-,N/A,,Clear,240,2013-01-04 15:52:00
9:52 AM,30.0,7.0,38,30.27,10.0,SW,9.2,-,0.01,,Clear,230,2013-01-04 16:52:00
10:52 AM,32.0,10.9,42,30.23,10.0,WSW,8.1,-,0.02,,Clear,250,2013-01-04 17:52:00
11:52 AM,33.1,12.0,42,30.19,10.0,WSW,11.5,-,N/A,,Clear,250,2013-01-04 18:52:00
12:52 PM,34.0,14.0,44,30.16,10.0,WSW,9.2,-,N/A,,Clear,250,2013-01-04 19:52:00
1:52 PM,35.1,14.0,42,30.14,10.0,Calm,Calm,-,N/A,,Clear,0,2013-01-04 20:52:00
2:52 PM,35.1,12.9,40,30.12,10.0,Calm,Calm,-,N/A,,Clear,0,2013-01-04 21:52:00
3:52 PM,33.1,12.9,43,30.14,10.0,West,5.8,-,N/A,,Clear,260,2013-01-04 22:52:00
4:52 PM,19.9,10.0,65,30.18,10.0,Calm,Calm,-,N/A,,Clear,0,2013-01-04 23:52:00
5:52 PM,21.0,10.9,65,30.18,10.0,West,4.6,-,N/A,,Clear,260,2013-01-05 00:52:00
6:52 PM,17.1,9.0,71,30.18,10.0,West,6.9,-,N/A,,Clear,270,2013-01-05 01:52:00
7:52 PM,14.0,8.1,77,30.19,10.0,Calm,Calm,-,N/A,,Clear,0,2013-01-05 02:52:00
8:52 PM,12.9,8.1,81,30.16,10.0,Calm,Calm,-,N/A,,Clear,0,2013-01-05 03:52:00
9:52 PM,12.9,8.1,81,30.17,10.0,WSW,3.5,-,N/A,,Clear,240,2013-01-05 04:52:00
10:52 PM,10.9,7.0,84,30.16,10.0,Calm,Calm,-,N/A,,Clear,0,2013-01-05 05:52:00
11:52 PM,9.0,5.0,84,30.16,10.0,Calm,Calm,-,N/A,,Clear,0,2013-01-05 06:52:00